Volver al catálogo

FENGYUN 1C DEB

ActivoLEO
NORAD 31861·DEBRIS·🇨🇳 China

Lanzado May 10, 1999 desde Taiyuan Satellite Launch Center

Loading…

Próximos Pases (próximas 24 horas)

TLE

ActualizadoSource: Space-Track

Época: Sep 14, 2026, 21:45 UTC

1 31861U 99025CKB 26257.90662564  .00001429  00000-0  15811-2 0  9998
2 31861 102.3326 150.8428 0494416 325.8904  31.1333 13.31365124704414

Sigue FENGYUN 1C DEB en tiempo real con AllMySat

Download on the App Store